[[{"header":{"parameterUnit":"m.s-1","parameterCategory":1,"la1":30.2991,"la2":30.254,"lo1":-89.0895,"lo2":-89.0444,"dy":0.0017,"dx":0.0017,"nx":28,"ny":28,"refTime":"2025-02-24T03:00:00:Z","depth":0,"parameterNumber":2,"parameterNumberName":"U-component_of_WINDS"},"data":[0,0,0,0,0,0,0,0,0,0,0,0,0,0,0,0,0,0,0,0,0,0,0,0,0,0,0,0,0,0,0,0,0,0,0,0,0,0,0,0,0,0,0,0,0,0,0,0,0,0,0,0,0,0,0,0,0,0,-0.3598,-0.3599,0,-0.3671,-0.3672,-0.3672,-0.3697,-0.3696,-0.3696,-0.3696,-0.3773,-0.3775,-0.3778,0,0,0,0,0,0,0,0,0,0,0,0,0,-0.3482,-0.3484,-0.3598,-0.3599,-0.36,-0.3671,-0.3672,-0.3673,-0.3697,-0.3696,-0.3696,-0.3696,-0.3772,-0.3775,-0.3778,0,0,0,0,0,0,0,0,0,0,0,0,0,-0.3541,-0.3484,-0.3598,-0.362,-0.3623,-0.367,-0.3672,-0.3673,-0.3697,-0.3696,-0.3696,-0.3696,-0.3771,-0.3775,-0.3778,-0.3809,0,0,-0.3789,-0.3791,0,0,0,0,0,0,0,0,-0.3538,-0.3545,-0.3616,-0.3619,-0.3622,-0.3674,-0.3659,-0.3719,-0.3697,-0.3669,-0.3696,-0.3695,-0.3741,-0.3747,-0.3762,-0.3813,-0.3816,-0.3789,-0.3792,-0.3793,-0.3794,0,0,0,0,0,0,0,-0.3534,-0.3542,-0.3627,-0.3617,-0.3621,-0.3627,-0.3635,-0.367,-0.3707,-0.3671,-0.3673,-0.3681,-0.3742,-0.3758,-0.3764,-0.3818,-0.3789,-0.3792,-0.3795,-0.3796,-0.3898,-0.3898,0,0,0,0,0,0,-0.3525,-0.3539,-0.3625,-0.3629,-0.3578,-0.363,-0.3639,-0.3658,-0.3706,-0.3713,-0.3682,-0.3682,-0.3752,-0.3759,-0.3766,-0.3806,-0.3793,-0.3796,-0.3798,-0.3897,-0.3898,-0.3899,0,0,0,0,0,0,-0.3523,-0.3533,-0.3622,-0.3584,-0.3596,-0.3632,-0.3654,-0.366,-0.3675,-0.3714,-0.3721,-0.3691,-0.3752,-0.3761,-0.3798,-0.3809,-0.3798,-0.3801,-0.3897,-0.3897,-0.3898,-0.3886,0,0,0,0,0,0,-0.3519,-0.3532,-0.3544,-0.3584,-0.3598,-0.3652,-0.3654,-0.3661,-0.3681,-0.3683,-0.3725,-0.3731,-0.3753,-0.3793,-0.3802,-0.3814,-0.3804,-0.3896,-0.3897,-0.3898,-0.3885,-0.3886,-0.3886,0,0,0,0,0,-0.3515,-0.3538,-0.3544,-0.3554,-0.3614,-0.3652,-0.366,-0.3683,-0.3682,-0.3694,-0.3719,-0.373,-0.3806,-0.3796,-0.3807,-0.382,-0.3895,-0.3897,-0.3898,-0.3885,-0.3886,-0.3886,0,0,0,0,0,0,-0.3499,-0.3544,-0.3551,-0.3588,-0.3616,-0.3656,-0.3673,-0.3684,-0.3714,-0.3714,-0.3742,-0.3751,-0.3786,-0.3807,-0.3795,-0.3852,-0.3851,-0.3855,-0.3838,-0.3839,-0.384,-0.3835,-0.3807,0,0,0,0,0,-0.3499,-0.3526,-0.3564,-0.3593,-0.3606,-0.3637,-0.3655,-0.367,-0.3701,-0.3713,-0.3741,-0.3771,-0.3801,-0.3821,-0.3851,-0.3888,-0.3897,-0.3902,-0.3902,-0.3903,-0.3906,-0.3926,-0.3929,-0.3903,-0.3903,-0.3903,0,0,-0.3501,-0.3528,-0.3544,-0.359,-0.3614,-0.3642,-0.3647,-0.3677,-0.3698,-0.3718,-0.3754,-0.3775,-0.3811,-0.3847,-0.3865,-0.3865,-0.3915,-0.3904,-0.3904,-0.3907,-0.3928,-0.393,-0.3933,-0.3904,-0.3904,-0.3904,0,0,-0.3518,-0.3541,-0.3568,-0.3591,-0.3626,-0.3646,-0.3652,-0.3691,-0.3705,-0.3742,-0.3757,-0.3783,-0.3835,-0.386,-0.3879,-0.3904,-0.3915,-0.3913,-0.3917,-0.3936,-0.3938,-0.394,-0.395,-0.3953,-0.3915,-0.3915,-0.3915,0,-0.3516,-0.3558,-0.358,-0.3608,-0.3628,-0.3646,-0.3673,-0.3695,-0.3739,-0.3752,-0.3752,-0.3817,-0.3842,-0.3885,-0.389,-0.3905,-0.3913,-0.3909,-0.3936,-0.3938,-0.3941,-0.395,-0.3953,-0.3915,-0.3915,-0.3915,-0.3915,0,-0.3554,-0.3582,-0.3599,-0.364,-0.3661,-0.3689,-0.3716,-0.3735,-0.3748,-0.3768,-0.3805,-0.3835,-0.3872,-0.3883,-0.3896,-0.3927,-0.3926,-0.393,-0.393,-0.3942,-0.3951,-0.3955,-0.3914,-0.3914,-0.3914,-0.3915,0,0,-0.3565,-0.3615,-0.3622,-0.364,-0.3679,-0.3702,-0.373,-0.3765,-0.3781,-0.381,-0.3835,-0.3878,-0.3882,-0.3903,-0.3919,-0.3936,-0.3954,-0.3939,-0.394,-0.3941,-0.3991,-0.3988,-0.3992,-0.3961,-0.3962,-0.3963,-0.3988,0,-0.3588,-0.3638,-0.3658,-0.37,-0.3727,-0.3743,-0.3768,-0.3795,-0.3814,-0.384,-0.3861,-0.3891,-0.3894,-0.3907,-0.3924,-0.3948,-0.3965,-0.3947,-0.3986,-0.3987,-0.3977,-0.3996,-0.3994,-0.4016,-0.3992,-0.3992,-0.3993,0,-0.3622,-0.365,-0.3693,-0.3729,-0.3741,-0.3762,-0.3795,-0.382,-0.3851,-0.3863,-0.3887,-0.3901,-0.3932,-0.3928,-0.3971,-0.3958,-0.3975,-0.3988,-0.399,-0.3996,-0.3991,-0.4003,-0.4024,-0.4028,-0.3998,-0.3998,-0.3998,0,-0.3626,-0.3675,-0.3707,-0.3722,-0.3764,-0.3779,-0.3797,-0.3827,-0.3846,-0.3875,-0.3888,-0.392,-0.3938,-0.3963,-0.3986,-0.3981,-0.4027,-0.4025,-0.4039,-0.4038,-0.4049,-0.4048,-0.4074,-0.4058,-0.4058,-0.4058,-0.4057,0,-0.3651,-0.3677,-0.371,-0.373,-0.3759,-0.3782,-0.3811,-0.383,-0.3857,-0.3881,-0.3897,-0.392,-0.3948,-0.3974,-0.3993,-0.4025,-0.4033,-0.4045,-0.4049,-0.4044,-0.4043,-0.4057,-0.4056,-0.4059,-0.4058,-0.4058,-0.4058,0,-0.3662,-0.3684,-0.3721,-0.3756,-0.3766,-0.3786,-0.3817,-0.3838,-0.3856,-0.3887,-0.3896,-0.3926,-0.3958,-0.3982,-0.4024,-0.4036,-0.4071,-0.4075,-0.406,-0.4063,-0.4076,-0.4074,-0.4112,-0.4118,-0.4097,-0.4097,-0.4097,0,-0.3676,-0.3697,-0.3734,-0.3751,-0.3769,-0.3796,-0.3815,-0.3838,-0.3857,-0.3893,-0.3909,-0.3941,-0.3969,-0.4019,-0.4045,-0.4077,-0.4083,-0.4094,-0.4088,-0.4082,-0.4084,-0.4083,-0.4085,-0.4095,-0.4095,-0.4095,-0.4095,0,-0.37,-0.371,-0.3737,-0.3767,-0.379,-0.3815,-0.3841,-0.3854,-0.3881,-0.3902,-0.3934,-0.3955,-0.3997,-0.4029,-0.4063,-0.4083,-0.4094,-0.4096,-0.4102,-0.4097,-0.4088,-0.4094,-0.4063,-0.4096,-0.4096,-0.4096,-0.4096,-0.4096,-0.3714,-0.3733,-0.3762,-0.3791,-0.3812,-0.3836,-0.3856,-0.3877,-0.3904,-0.3939,-0.395,-0.3983,-0.4013,-0.406,-0.4079,-0.4106,-0.4106,-0.4113,-0.4116,-0.4117,-0.4117,-0.4082,-0.4112,-0.4112,-0.4112,-0.4112,-0.4112,0,-0.374,-0.3759,-0.3785,-0.382,-0.3843,-0.3849,-0.3878,-0.3897,-0.3925,-0.3951,-0.3977,-0.4014,-0.4045,-0.4073,-0.4105,-0.4121,-0.4127,-0.4129,-0.4128,-0.4133,-0.4114,-0.4107,-0.4123,-0.4123,-0.4123,-0.4123,-0.4123,-0.4123,-0.3756,-0.3788,-0.3801,-0.3844,-0.3863,-0.3894,-0.391,-0.3932,-0.3952,-0.3992,-0.4017,-0.4035,-0.4062,-0.4096,-0.4124,-0.4132,-0.4143,-0.4144,-0.4153,-0.4135,-0.4134,-0.4133,-0.4126,-0.4146,-0.4146,-0.4169,-0.417,-0.417]},{"header":{"parameterUnit":"m.s-1","parameterCategory":1,"la1":30.2991,"la2":30.254,"lo1":-89.0895,"lo2":-89.0444,"dy":0.0017,"dx":0.0017,"nx":28,"ny":28,"refTime":"2025-02-24T03:00:00:Z","depth":0,"parameterNumber":3,"parameterNumberName":"V-component_of_WINDS"},"data":[0,0,0,0,0,0,0,0,0,0,0,0,0,0,0,0,0,0,0,0,0,0,0,0,0,0,0,0,0,0,0,0,0,0,0,0,0,0,0,0,0,0,0,0,0,0,0,0,0,0,0,0,0,0,0,0,0,0,-3.8683,-3.8683,0,-3.8705,-3.8705,-3.8705,-3.8633,-3.8631,-3.8629,-3.8627,-3.8645,-3.8647,-3.865,0,0,0,0,0,0,0,0,0,0,0,0,0,-3.8575,-3.8578,-3.8683,-3.8683,-3.8683,-3.8705,-3.8705,-3.8705,-3.8633,-3.8631,-3.8628,-3.8626,-3.8644,-3.8647,-3.865,0,0,0,0,0,0,0,0,0,0,0,0,0,-3.8612,-3.8578,-3.8683,-3.865,-3.8648,-3.8705,-3.8705,-3.8705,-3.8634,-3.8631,-3.8628,-3.8625,-3.8643,-3.8647,-3.865,-3.8738,0,0,-3.8662,-3.8663,0,0,0,0,0,0,0,0,-3.861,-3.8616,-3.8655,-3.8653,-3.865,-3.8663,-3.8673,-3.8716,-3.8635,-3.8639,-3.8627,-3.8623,-3.8653,-3.8656,-3.8667,-3.8739,-3.874,-3.8662,-3.8664,-3.8666,-3.8667,0,0,0,0,0,0,0,-3.8608,-3.8615,-3.8691,-3.8655,-3.8652,-3.8633,-3.8635,-3.8681,-3.8664,-3.8638,-3.8633,-3.8637,-3.8651,-3.8664,-3.8667,-3.874,-3.8662,-3.8665,-3.8668,-3.8669,-3.8887,-3.889,0,0,0,0,0,0,-3.861,-3.8613,-3.8691,-3.8692,-3.8622,-3.8638,-3.864,-3.8662,-3.8663,-3.866,-3.864,-3.8634,-3.8659,-3.8663,-3.8667,-3.8771,-3.8666,-3.8669,-3.8672,-3.8883,-3.8887,-3.8891,0,0,0,0,0,0,-3.8608,-3.8617,-3.869,-3.8651,-3.8659,-3.8643,-3.8669,-3.8664,-3.8676,-3.8664,-3.866,-3.8656,-3.8656,-3.8662,-3.8722,-3.8771,-3.8671,-3.8675,-3.8879,-3.8884,-3.8889,-3.898,0,0,0,0,0,0,-3.8605,-3.8617,-3.8651,-3.8652,-3.8661,-3.8745,-3.8672,-3.8667,-3.8684,-3.8676,-3.8678,-3.8676,-3.8654,-3.8717,-3.8725,-3.8774,-3.8677,-3.8874,-3.8881,-3.8888,-3.8973,-3.8988,-3.9001,0,0,0,0,0,-3.8601,-3.8675,-3.8653,-3.8663,-3.8704,-3.8748,-3.8753,-3.8728,-3.8688,-3.8722,-3.8714,-3.8676,-3.8764,-3.8723,-3.8733,-3.8783,-3.8871,-3.8879,-3.8887,-3.8966,-3.8985,-3.9,0,0,0,0,0,0,-3.8678,-3.8674,-3.8651,-3.8727,-3.8739,-3.8736,-3.8778,-3.8748,-3.8771,-3.8762,-3.8729,-3.873,-3.8796,-3.8795,-3.875,-3.8869,-3.881,-3.8821,-3.8867,-3.8885,-3.8899,-3.8898,-3.8681,0,0,0,0,0,-3.8704,-3.8742,-3.8736,-3.8803,-3.8811,-3.8794,-3.8812,-3.8792,-3.8802,-3.8806,-3.8803,-3.8813,-3.8843,-3.8864,-3.8891,-3.8972,-3.8972,-3.9011,-3.9025,-3.9037,-3.9047,-3.909,-3.9108,-3.8917,-3.8917,-3.8917,0,0,-3.8757,-3.876,-3.8785,-3.8819,-3.8826,-3.8865,-3.8798,-3.8842,-3.887,-3.8812,-3.887,-3.8867,-3.8877,-3.8948,-3.8979,-3.895,-3.9099,-3.9047,-3.9057,-3.906,-3.9101,-3.9119,-3.9135,-3.8923,-3.8922,-3.8921,0,0,-3.8875,-3.8881,-3.8939,-3.8947,-3.8959,-3.8948,-3.8962,-3.8964,-3.8961,-3.9018,-3.8976,-3.9008,-3.9061,-3.907,-3.9081,-3.9203,-3.917,-3.9213,-3.9287,-3.933,-3.9345,-3.9358,-3.9403,-3.942,-3.9222,-3.9222,-3.9222,0,-3.8939,-3.8998,-3.8971,-3.9019,-3.9035,-3.8986,-3.9044,-3.9053,-3.9073,-3.9085,-3.9051,-3.9117,-3.912,-3.9193,-3.9223,-3.9234,-3.9248,-3.9213,-3.9346,-3.9358,-3.937,-3.9413,-3.943,-3.9228,-3.9227,-3.9227,-3.9226,0,-3.9078,-3.9119,-3.9164,-3.9187,-3.9207,-3.926,-3.924,-3.9264,-3.9242,-3.9234,-3.9293,-3.9294,-3.9322,-3.9337,-3.9315,-3.9408,-3.9389,-3.9351,-3.9292,-3.9394,-3.9434,-3.945,-3.9235,-3.9233,-3.9232,-3.923,0,0,-3.9244,-3.9252,-3.927,-3.928,-3.929,-3.9321,-3.9371,-3.9399,-3.9421,-3.9436,-3.9477,-3.9523,-3.9488,-3.9501,-3.948,-3.9518,-3.9617,-3.9475,-3.9475,-3.9503,-3.972,-3.975,-3.9769,-3.9594,-3.9597,-3.9599,-3.972,0,-3.9361,-3.9449,-3.9427,-3.9514,-3.9552,-3.9507,-3.955,-3.9561,-3.9554,-3.9584,-3.9576,-3.961,-3.9561,-3.9569,-3.9604,-3.9597,-3.966,-3.9588,-3.9632,-3.9634,-3.9633,-3.9789,-3.982,-3.9934,-3.9735,-3.9737,-3.9739,0,-3.9509,-3.9533,-3.9625,-3.963,-3.9645,-3.9685,-3.971,-3.974,-3.975,-3.9743,-3.9759,-3.973,-3.9778,-3.9718,-3.9785,-3.9737,-3.9753,-3.9752,-3.9756,-3.976,-3.9694,-3.9799,-3.997,-3.9988,-3.9763,-3.9761,-3.9759,0,-3.9624,-3.9678,-3.974,-3.975,-3.9757,-3.9787,-3.9791,-3.9799,-3.9817,-3.9838,-3.985,-3.9876,-3.989,-3.991,-3.9889,-3.9847,-3.996,-3.9897,-3.9955,-3.9956,-3.9981,-3.998,-4.0159,-3.999,-3.999,-3.9989,-3.9989,0,-3.9757,-3.9816,-3.9792,-3.983,-3.9894,-3.9867,-3.9931,-3.9929,-3.9937,-3.9973,-3.9934,-3.9969,-3.9939,-3.997,-3.9954,-4.0012,-4.0018,-4.0014,-4.0009,-4.0018,-4.0019,-4.0029,-4.0021,-3.9994,-3.9993,-3.9992,-3.9991,0,-3.9896,-3.9882,-3.9948,-3.995,-3.9952,-3.9999,-4.0,-4.0036,-4.0027,-4.0074,-4.0083,-4.0068,-4.0104,-4.0085,-4.0121,-4.011,-4.0186,-4.017,-4.0184,-4.018,-4.0239,-4.0234,-4.0432,-4.0457,-4.027,-4.0272,-4.0274,0,-3.9983,-4.0027,-4.0035,-4.0058,-4.0066,-4.0103,-4.0123,-4.0097,-4.0119,-4.0136,-4.0169,-4.0202,-4.0227,-4.0286,-4.0278,-4.0306,-4.029,-4.0358,-4.0294,-4.0303,-4.0293,-4.0292,-4.0296,-4.0371,-4.0373,-4.0375,-4.0376,0,-4.014,-4.0131,-4.0162,-4.0192,-4.0217,-4.0238,-4.0256,-4.0276,-4.0252,-4.0278,-4.0316,-4.0336,-4.0374,-4.0407,-4.0431,-4.0433,-4.0402,-4.0396,-4.0411,-4.0422,-4.0429,-4.0428,-4.022,-4.0392,-4.039,-4.0389,-4.0388,-4.0388,-4.0256,-4.0294,-4.0306,-4.0342,-4.0354,-4.0372,-4.0406,-4.0402,-4.0433,-4.0464,-4.0446,-4.049,-4.05,-4.0529,-4.0536,-4.057,-4.0543,-4.0564,-4.057,-4.0576,-4.0585,-4.0423,-4.0574,-4.0573,-4.0573,-4.0572,-4.0572,0,-4.0412,-4.0418,-4.0452,-4.0479,-4.0508,-4.0476,-4.0494,-4.052,-4.056,-4.0573,-4.0599,-4.0642,-4.0675,-4.067,-4.0699,-4.0727,-4.0713,-4.0735,-4.0734,-4.0735,-4.0606,-4.0591,-4.0746,-4.0746,-4.0746,-4.0746,-4.0746,-4.0746,-4.0496,-4.0559,-4.0553,-4.0621,-4.0625,-4.067,-4.0684,-4.07,-4.071,-4.0761,-4.0789,-4.0786,-4.0791,-4.0821,-4.0849,-4.0846,-4.086,-4.0888,-4.0881,-4.0761,-4.0744,-4.0727,-4.0713,-4.0891,-4.0891,-4.1006,-4.1007,-4.1008]}]]